Tracking 19706 objects as of 15-Jun-2019
HD Live streaming from Space Station
objects crossing your sky now

SCOUT B DEB

Track SCOUT B DEB now!
10-day predictions


NORAD ID: 29168
Int'l Code: 1965-063S
Perigee: 923.8 km
Apogee: 2,254.0 km
Inclination: 69.3 °
Period: 117.8 minutes
Semi major axis: 7959 km
RCS: 0.0859 m2 (small)
Launch date: August 10, 1965
Source: United States (US)
Launch site: WALLOPS ISLAND (WLPIS)

Note: This is SATELLITE DEBRIS
aabbcc
Your satellite tracking list
Your tracking list is empty




NASA's NSSDC Master Catalog

Two Line Element Set (TLE):
1 29168U 65063S   19166.15886429  .00013686  00000-0  41429-1 0  9997
2 29168  69.2586 238.2265 0835571 236.1238 128.8066 12.22479477585628
Source of the keplerian elements: AFSPC